Alma, GA

11:51 AM EST on February 06, 2016 (GMT -0500)
Bacon County

Weather History for KAMG - October, 2012

Change the Weather History Date:

Thursday, October 18, 2012

  Actual Average Record
Temperature  
Mean Temperature 70 °F 68 °F  
Max Temperature 83 °F 79 °F 90 °F (1972)
Min Temperature 57 °F 57 °F 34 °F (1954)
Degree Days  
Heating Degree Days 0 2  
Month to date heating degree days 1 14  
Since 1 July heating degree days 1 16  
Cooling Degree Days 5 4  
Month to date cooling degree days 128 113  
Year to date cooling degree days 2615 2383  
Growing Degree Days 20 (Base 50)    
Moisture  
Dew Point 60 °F    
Average Humidity 76    
Maximum Humidity 100    
Minimum Humidity 51    
Precipitation  
Precipitation T in 0.10 in 2.72 in (1950)
Month to date precipitation 0.30 1.87  
Year to date precipitation 33.28 39.72  
Snow  
Snow 0.00 in 0.00 in 0.00 in ()
Month to date snowfall 0.0 0.0  
Since 1 July snowfall 0.0 0.0  
Since 1 September snowfall 0.0 0.0  
Snow Depth 0.00 in    
Sea Level Pressure  
Sea Level Pressure 29.85 in    
Wind  
Wind Speed 2 mph (SSW)    
Max Wind Speed 12 mph    
Max Gust Speed 18 mph    
Visibility 4 miles    
Events Fog , Rain    
T = Trace of Precipitation, MM = Missing Value Source: NWS Daily Summary

Daily Weather History Graph

Daily Weather History Graph

Search for Another Location

Airport or City:

Trip Planner

Search our weather history database for the weather conditions in past years. The results will help you decide how hot, cold, wet, or windy it might be!

Date:

Astronomy

Oct. 18, 2012 Rise Set
Actual Time 7:35 AM EDT 6:54 PM EDT
Civil Twilight 7:11 AM EDT 7:18 PM EDT
Nautical Twilight 6:42 AM EDT 7:46 PM EDT
Astronomical Twilight 6:14 AM EDT 8:15 PM EDT
Moon 11:03 AM EDT (10/18) 9:40 PM EDT (10/18)
Length of Visible Light 12h 07m
Length of Day
11h 18m
Waxing Crescent, 14% of the Moon is Illuminated
Oct 18
Waxing Crescent
Oct 21
First Quarter
Oct 29
Full
Nov 6
Last Quarter
Nov 13
New

Hourly Weather History & Observations

Time (EDT) Temp. Heat Index Dew Point Humidity Pressure Visibility Wind Dir Wind Speed Gust Speed Precip Events Conditions
12:53 AM 57.9 °F - 55.9 °F 93% 29.87 in 3.0 mi Calm Calm - N/A   Clear
12:56 AM 57.2 °F - 55.4 °F 94% 29.87 in 1.8 mi Calm Calm - N/A   Clear
1:05 AM 57.2 °F - 55.4 °F 94% 29.87 in 3.0 mi Calm Calm - N/A   Clear
1:53 AM 59.0 °F - 55.9 °F 90% 29.86 in 5.0 mi Calm Calm - N/A   Clear
2:39 AM 59.0 °F - 55.4 °F 88% 29.85 in 2.0 mi Calm Calm - N/A   Clear
2:53 AM 57.9 °F - 55.9 °F 93% 29.84 in 1.0 mi Calm Calm - N/A   Clear
3:05 AM 59.0 °F - 57.2 °F 94% 29.85 in 3.0 mi Calm Calm - N/A   Partly Cloudy
3:20 AM 57.2 °F - 55.4 °F 94% 29.84 in 4.0 mi Calm Calm - N/A   Mostly Cloudy
3:53 AM 61.0 °F - 59.0 °F 93% 29.84 in 6.0 mi Calm Calm - N/A   Mostly Cloudy
4:38 AM 60.8 °F - 59.0 °F 94% 29.83 in 5.0 mi Calm Calm - N/A   Overcast
4:53 AM 61.0 °F - 59.0 °F 93% 29.83 in 6.0 mi Calm Calm - N/A   Overcast
5:14 AM 59.0 °F - 57.2 °F 94% 29.84 in 4.0 mi Calm Calm - N/A   Scattered Clouds
5:53 AM 59.0 °F - 57.0 °F 93% 29.84 in 2.5 mi Calm Calm - N/A   Clear
6:07 AM 57.2 °F - 55.4 °F 94% 29.85 in 1.0 mi Calm Calm - N/A   Clear
6:20 AM 57.2 °F - 55.4 °F 94% 29.86 in 0.8 mi Calm Calm - N/A   Mist
6:29 AM 57.2 °F - 55.4 °F 94% 29.86 in 1.0 mi Calm Calm - N/A   Clear
6:33 AM 57.2 °F - 55.4 °F 94% 29.86 in 0.8 mi Calm Calm - N/A   Mist
6:53 AM 57.0 °F - 55.9 °F 96% 29.86 in 0.5 mi Calm Calm - N/A Fog Fog
7:03 AM 57.2 °F - 55.4 °F 94% 29.87 in 0.2 mi Calm Calm - N/A Fog Fog
7:12 AM 57.2 °F - 55.4 °F 94% 29.86 in 1.0 mi Calm Calm - N/A   Mist
7:15 AM 57.2 °F - 55.4 °F 94% 29.86 in 2.5 mi Calm Calm - N/A   Scattered Clouds
7:20 AM 57.2 °F - 55.4 °F 94% 29.86 in 1.0 mi Calm Calm - N/A   Mist
7:28 AM 57.2 °F - 55.4 °F 94% 29.87 in 2.5 mi Calm Calm - N/A   Scattered Clouds
7:35 AM 57.2 °F - 57.2 °F 100% 29.87 in 4.0 mi Calm Calm - N/A   Mostly Cloudy
7:53 AM 60.1 °F - 57.9 °F 93% 29.87 in 3.0 mi Calm Calm - N/A   Overcast
8:00 AM 60.8 °F - 59.0 °F 94% 29.87 in 2.0 mi Calm Calm - N/A   Overcast
8:07 AM 60.8 °F - 60.8 °F 100% 29.88 in 1.2 mi Calm Calm - N/A   Overcast
8:16 AM 62.6 °F - 60.8 °F 94% 29.88 in 0.2 mi Calm Calm - N/A Fog Fog
8:53 AM 63.0 °F - 62.1 °F 97% 29.87 in 0.2 mi SSE 3.5 mph - N/A Fog Fog
9:53 AM 66.0 °F - 64.0 °F 93% 29.88 in 0.2 mi South 4.6 mph - N/A Fog Fog
10:04 AM 66.2 °F - 64.4 °F 94% 29.88 in 0.5 mi South 4.6 mph - N/A Fog Fog
10:49 AM 66.2 °F - 66.2 °F 100% 29.88 in 1.5 mi Calm Calm - N/A   Overcast
10:53 AM 66.9 °F - 66.0 °F 97% 29.88 in 2.5 mi Calm Calm - N/A   Overcast
11:00 AM 68.0 °F - 66.2 °F 94% 29.88 in 3.0 mi Calm Calm - N/A   Overcast
11:18 AM 68.0 °F - 66.2 °F 94% 29.88 in 6.0 mi SSW 5.8 mph - N/A   Overcast
11:29 AM 68.0 °F - 66.2 °F 94% 29.88 in 8.0 mi SSW 5.8 mph - N/A   Overcast
11:53 AM 73.0 °F - 66.0 °F 79% 29.87 in 10.0 mi South 4.6 mph - N/A   Mostly Cloudy
12:00 PM 75.2 °F - 66.2 °F 73% 29.87 in 10.0 mi SSE 5.8 mph - N/A   Scattered Clouds
12:53 PM 77.0 °F - 64.0 °F 64% 29.85 in 10.0 mi Variable 4.6 mph - N/A   Clear
1:53 PM 80.1 °F 81.5 °F 63.0 °F 56% 29.81 in 10.0 mi Variable 4.6 mph - N/A   Clear
2:53 PM 82.0 °F 83.0 °F 62.1 °F 51% 29.79 in 10.0 mi SW 6.9 mph - N/A   Clear
3:53 PM 82.0 °F 83.4 °F 64.0 °F 54% 29.80 in 10.0 mi WSW 8.1 mph - N/A   Clear
4:53 PM 80.1 °F 81.5 °F 63.0 °F 56% 29.79 in 10.0 mi WSW 5.8 mph - N/A   Clear
5:53 PM 79.0 °F - 64.0 °F 60% 29.81 in 10.0 mi WSW 4.6 mph - N/A   Clear
6:53 PM 75.9 °F - 64.9 °F 69% 29.82 in 10.0 mi West 4.6 mph - N/A   Partly Cloudy
7:53 PM 72.0 °F - 66.0 °F 81% 29.82 in 10.0 mi Calm Calm - N/A   Scattered Clouds
8:53 PM 72.0 °F - 66.0 °F 81% 29.83 in 10.0 mi Calm Calm - N/A   Overcast
9:53 PM 71.1 °F - 66.0 °F 84% 29.84 in 10.0 mi Calm Calm - N/A   Overcast
10:53 PM 70.0 °F - 66.0 °F 87% 29.84 in 6.0 mi South 3.5 mph - N/A   Overcast
11:53 PM 69.1 °F - 66.0 °F 90% 29.83 in 7.0 mi SSE 3.5 mph - 0.00 in Rain Light Rain